TimeEDT,TemperatureF,Dew PointF,Humidity,Sea Level PressureIn,VisibilityMPH,Wind Direction,Wind SpeedMPH,Gust SpeedMPH,PrecipitationIn,Events,Conditions,WindDirDegrees,DateUTC
12:35 AM,71.6,71.6,100,30.02,10.0,Calm,Calm,-,N/A,,Clear,0,2012-10-09 04:35:00
12:55 AM,71.6,71.6,100,30.03,10.0,Calm,Calm,-,N/A,,Clear,0,2012-10-09 04:55:00
1:15 AM,71.6,71.6,100,30.02,10.0,Calm,Calm,-,N/A,,Clear,0,2012-10-09 05:15:00
1:35 AM,71.6,71.6,100,30.01,7.0,Calm,Calm,-,N/A,,Clear,0,2012-10-09 05:35:00
1:55 AM,71.6,69.8,94,30.00,7.0,Calm,Calm,-,N/A,,Clear,0,2012-10-09 05:55:00
2:15 AM,71.6,71.6,100,30.00,10.0,Calm,Calm,-,N/A,,Clear,0,2012-10-09 06:15:00
2:35 AM,71.6,69.8,94,30.00,7.0,Calm,Calm,-,N/A,,Scattered Clouds,0,2012-10-09 06:35:00
2:55 AM,71.6,69.8,94,29.99,7.0,Calm,Calm,-,N/A,,Clear,0,2012-10-09 06:55:00
3:15 AM,71.6,69.8,94,29.99,10.0,Calm,Calm,-,N/A,,Clear,0,2012-10-09 07:15:00
3:35 AM,71.6,69.8,94,29.99,7.0,Calm,Calm,-,N/A,,Clear,0,2012-10-09 07:35:00
4:15 AM,71.6,69.8,94,29.99,10.0,Calm,Calm,-,N/A,,Clear,0,2012-10-09 08:15:00
4:35 AM,71.6,69.8,94,29.99,10.0,Calm,Calm,-,N/A,,Clear,0,2012-10-09 08:35:00
4:55 AM,71.6,69.8,94,29.99,7.0,Calm,Calm,-,N/A,,Clear,0,2012-10-09 08:55:00
5:15 AM,69.8,69.8,100,29.99,7.0,Calm,Calm,-,N/A,,Clear,0,2012-10-09 09:15:00
5:35 AM,69.8,69.8,100,30.00,7.0,Calm,Calm,-,N/A,,Clear,0,2012-10-09 09:35:00
5:50 AM,71.6,69.8,94,30.00,10.0,Calm,Calm,-,N/A,,Clear,0,2012-10-09 09:50:00
5:55 AM,69.8,69.8,100,30.00,7.0,Calm,Calm,-,N/A,,Clear,0,2012-10-09 09:55:00
6:15 AM,69.8,69.8,100,30.01,7.0,Calm,Calm,-,N/A,,Clear,0,2012-10-09 10:15:00
6:35 AM,69.8,69.8,100,30.01,5.0,North,3.5,-,N/A,,Clear,350,2012-10-09 10:35:00
6:50 AM,71.6,69.8,94,30.01,10.0,Calm,Calm,-,N/A,,Clear,0,2012-10-09 10:50:00
7:50 AM,71.6,69.8,94,30.02,8.0,Calm,Calm,-,N/A,,Clear,0,2012-10-09 11:50:00
8:16 AM,71.6,69.8,94,30.02,3.0,Calm,Calm,-,N/A,,Mostly Cloudy,0,2012-10-09 12:16:00
8:50 AM,73.4,71.6,94,30.04,3.0,Calm,Calm,-,N/A,,Overcast,0,2012-10-09 12:50:00
9:50 AM,73.4,71.6,94,30.05,5.0,Calm,Calm,-,N/A,,Overcast,0,2012-10-09 13:50:00
10:50 AM,75.2,73.4,94,30.06,5.0,Calm,Calm,-,N/A,,Overcast,0,2012-10-09 14:50:00
11:50 AM,77.0,71.6,83,30.06,5.0,Variable,4.6,-,N/A,,Overcast,0,2012-10-09 15:50:00
12:50 PM,78.8,71.6,78,30.05,10.0,NE,5.8,-,N/A,,Overcast,40,2012-10-09 16:50:00
1:50 PM,80.6,71.6,74,30.04,10.0,NNE,5.8,-,N/A,,Mostly Cloudy,30,2012-10-09 17:50:00
2:53 PM,84.2,69.8,62,30.02,15.0,NE,4.6,-,N/A,,Mostly Cloudy,50,2012-10-09 18:53:00
3:50 PM,84.2,69.8,62,30.01,15.0,NNE,8.1,-,N/A,,Mostly Cloudy,20,2012-10-09 19:50:00
4:50 PM,84.2,69.8,62,30.00,15.0,NNE,9.2,-,N/A,,Mostly Cloudy,20,2012-10-09 20:50:00
5:54 PM,84.2,69.8,62,30.00,15.0,North,4.6,-,N/A,,Scattered Clouds,360,2012-10-09 21:54:00
6:51 PM,80.6,69.8,70,30.00,15.0,North,4.6,-,N/A,,Scattered Clouds,10,2012-10-09 22:51:00
7:52 PM,78.8,71.6,78,30.02,15.0,North,5.8,-,N/A,,Mostly Cloudy,10,2012-10-09 23:52:00
8:54 PM,78.8,71.6,78,30.04,15.0,ENE,5.8,-,N/A,,Mostly Cloudy,60,2012-10-10 00:54:00
9:51 PM,78.8,71.6,78,30.06,15.0,East,8.1,-,N/A,,Mostly Cloudy,80,2012-10-10 01:51:00
10:55 PM,73.4,69.8,88,30.08,10.0,East,8.1,-,N/A,,Scattered Clouds,80,2012-10-10 02:55:00
11:15 PM,73.4,68.0,83,30.08,10.0,East,6.9,-,N/A,,Scattered Clouds,100,2012-10-10 03:15:00
11:35 PM,73.4,68.0,83,30.08,10.0,East,5.8,-,N/A,,Clear,100,2012-10-10 03:35:00
11:55 PM,71.6,68.0,88,30.07,10.0,East,6.9,-,N/A,,Clear,80,2012-10-10 03:55:00